Wetterdaten: Samstag, 21.05.2016
Datum Zeit Auen-Temp. Temp gefhlt Luftfeuchte Luftdruck Regen Wind Richtung Richtung Sonnenschein Taupunkt Windben
21.05.2016 00:00 8,1 C 7,4 C 80 % 1020,3 hPa 0,0 mm 0,0 km/h (0 Bft) W-SW 247 0 min 4,9 C 0,0 km/h (0 Bft)
21.05.2016 00:05 8,0 C 7,3 C 80 % 1020,3 hPa 0,0 mm 0,0 km/h (0 Bft) SW 225 0 min 4,8 C 0,0 km/h (0 Bft)
21.05.2016 00:10 7,9 C 7,2 C 80 % 1020,3 hPa 0,0 mm 0,0 km/h (0 Bft) S-SW 202 0 min 4,7 C 0,0 km/h (0 Bft)
21.05.2016 00:15 7,8 C 7,1 C 80 % 1020,4 hPa 0,0 mm 0,0 km/h (0 Bft) W-SW 247 0 min 4,6 C 0,0 km/h (0 Bft)
21.05.2016 00:20 7,8 C 7,2 C 80 % 1020,4 hPa 0,0 mm 0,0 km/h (0 Bft) NW 315 0 min 4,6 C 0,0 km/h (0 Bft)
21.05.2016 00:25 7,7 C 7,2 C 80 % 1020,4 hPa 0,0 mm 0,0 km/h (0 Bft) O 90 0 min 4,5 C 0,0 km/h (0 Bft)
21.05.2016 00:30 7,6 C 7,2 C 80 % 1020,4 hPa 0,0 mm 0,0 km/h (0 Bft) NO 45 0 min 4,4 C 0,0 km/h (0 Bft)
21.05.2016 00:35 7,6 C 7,1 C 81 % 1020,2 hPa 0,0 mm 0,0 km/h (0 Bft) NO 45 0 min 4,6 C 0,0 km/h (0 Bft)
21.05.2016 00:40 7,7 C 7,1 C 81 % 1020,2 hPa 0,0 mm 0,0 km/h (0 Bft) O 90 0 min 4,7 C 0,0 km/h (0 Bft)
21.05.2016 00:45 7,6 C 6,9 C 81 % 1020,2 hPa 0,0 mm 0,0 km/h (0 Bft) N-NO 22 0 min 4,6 C 0,0 km/h (0 Bft)
21.05.2016 00:50 7,4 C 6,9 C 81 % 1020,2 hPa 0,0 mm 0,0 km/h (0 Bft) O-NO 67 0 min 4,4 C 0,0 km/h (0 Bft)
21.05.2016 00:55 7,3 C 6,8 C 81 % 1020,2 hPa 0,0 mm 0,0 km/h (0 Bft) NO 45 0 min 4,3 C 0,0 km/h (0 Bft)
21.05.2016 01:00 7,2 C 6,7 C 81 % 1020,2 hPa 0,0 mm 0,0 km/h (0 Bft) N-NO 22 0 min 4,2 C 0,0 km/h (0 Bft)
21.05.2016 01:05 7,2 C 6,6 C 81 % 1020,2 hPa 0,0 mm 0,0 km/h (0 Bft) N-NO 22 0 min 4,2 C 0,0 km/h (0 Bft)
21.05.2016 01:10 7,1 C 6,6 C 82 % 1020,2 hPa 0,0 mm 0,0 km/h (0 Bft) W-SW 247 0 min 4,2 C 0,0 km/h (0 Bft)
21.05.2016 01:15 7,1 C 6,6 C 82 % 1020,3 hPa 0,0 mm 0,0 km/h (0 Bft) SW 225 0 min 4,2 C 0,0 km/h (0 Bft)
21.05.2016 01:20 7,0 C 6,4 C 82 % 1020,3 hPa 0,0 mm 0,0 km/h (0 Bft) W-SW 247 0 min 4,1 C 0,0 km/h (0 Bft)
21.05.2016 01:25 6,9 C 6,4 C 82 % 1020,3 hPa 0,0 mm 0,0 km/h (0 Bft) W-NW 292 0 min 4,0 C 0,0 km/h (0 Bft)
21.05.2016 01:30 6,8 C 6,4 C 82 % 1020,3 hPa 0,0 mm 0,0 km/h (0 Bft) W-NW 292 0 min 3,9 C 0,0 km/h (0 Bft)
21.05.2016 01:35 6,7 C 6,2 C 82 % 1020,0 hPa 0,0 mm 0,0 km/h (0 Bft) W-NW 292 0 min 3,8 C 0,0 km/h (0 Bft)
21.05.2016 01:40 6,7 C 6,2 C 82 % 1020,0 hPa 0,0 mm 0,0 km/h (0 Bft) SW 225 0 min 3,8 C 0,0 km/h (0 Bft)
21.05.2016 01:45 6,7 C 6,2 C 83 % 1020,0 hPa 0,0 mm 0,0 km/h (0 Bft) W-NW 292 0 min 4,0 C 0,0 km/h (0 Bft)
21.05.2016 01:50 6,7 C 6,2 C 83 % 1020,0 hPa 0,0 mm 0,0 km/h (0 Bft) N-NW 337 0 min 4,0 C 0,0 km/h (0 Bft)
21.05.2016 01:55 6,6 C 6,0 C 83 % 1019,8 hPa 0,0 mm 0,0 km/h (0 Bft) NW 315 0 min 3,9 C 0,0 km/h (0 Bft)
21.05.2016 02:00 6,6 C 6,0 C 83 % 1019,8 hPa 0,0 mm 0,0 km/h (0 Bft) N-NW 337 0 min 3,9 C 0,0 km/h (0 Bft)
21.05.2016 02:05 6,4 C 5,9 C 83 % 1019,8 hPa 0,0 mm 0,0 km/h (0 Bft) N-NW 337 0 min 3,7 C 0,0 km/h (0 Bft)
21.05.2016 02:10 6,4 C 5,8 C 83 % 1019,8 hPa 0,0 mm 0,0 km/h (0 Bft) N-NW 337 0 min 3,7 C 0,0 km/h (0 Bft)
21.05.2016 02:15 6,3 C 5,7 C 83 % 1019,9 hPa 0,0 mm 0,0 km/h (0 Bft) O-NO 67 0 min 3,6 C 0,0 km/h (0 Bft)
21.05.2016 02:16 6,3 C 5,8 C 83 % 1019,9 hPa 0,0 mm 0,0 km/h (0 Bft) O-NO 67 0 min 3,6 C 0,0 km/h (0 Bft)
21.05.2016 02:18 6,3 C 5,8 C 83 % 1019,9 hPa 0,0 mm 0,0 km/h (0 Bft) O-NO 67 0 min 3,6 C 0,0 km/h (0 Bft)
21.05.2016 02:20 6,3 C 5,8 C 83 % 1019,9 hPa 0,0 mm 0,0 km/h (0 Bft) O-NO 67 0 min 3,6 C 0,0 km/h (0 Bft)
21.05.2016 02:25 6,3 C 5,7 C 83 % 1019,9 hPa 0,0 mm 0,0 km/h (0 Bft) N 360 0 min 3,6 C 0,0 km/h (0 Bft)
21.05.2016 02:30 6,2 C 5,8 C 83 % 1019,9 hPa 0,0 mm 0,0 km/h (0 Bft) N-NO 22 0 min 3,5 C 0,0 km/h (0 Bft)
21.05.2016 02:35 6,3 C 5,8 C 83 % 1019,8 hPa 0,0 mm 0,0 km/h (0 Bft) O-NO 67 0 min 3,6 C 0,0 km/h (0 Bft)
21.05.2016 02:40 6,3 C 5,7 C 83 % 1019,8 hPa 0,0 mm 0,0 km/h (0 Bft) NO 45 0 min 3,6 C 0,0 km/h (0 Bft)
21.05.2016 02:45 6,2 C 5,7 C 83 % 1019,8 hPa 0,0 mm 0,0 km/h (0 Bft) O-NO 67 0 min 3,5 C 0,0 km/h (0 Bft)
21.05.2016 02:50 6,2 C 5,8 C 83 % 1019,8 hPa 0,0 mm 0,0 km/h (0 Bft) NO 45 0 min 3,5 C 0,0 km/h (0 Bft)
21.05.2016 02:55 6,1 C 5,7 C 83 % 1019,8 hPa 0,0 mm 0,0 km/h (0 Bft) O-NO 67 0 min 3,4 C 0,0 km/h (0 Bft)
21.05.2016 03:00 6,1 C 5,6 C 83 % 1019,8 hPa 0,0 mm 0,0 km/h (0 Bft) O-NO 67 0 min 3,4 C 0,0 km/h (0 Bft)
21.05.2016 03:05 6,1 C 5,8 C 84 % 1019,8 hPa 0,0 mm 0,0 km/h (0 Bft) O-SO 112 0 min 3,6 C 0,0 km/h (0 Bft)
21.05.2016 03:10 6,3 C 5,8 C 84 % 1019,8 hPa 0,0 mm 0,0 km/h (0 Bft) SO 135 0 min 3,8 C 0,0 km/h (0 Bft)
21.05.2016 03:15 6,2 C 5,6 C 84 % 1019,8 hPa 0,0 mm 0,0 km/h (0 Bft) S-SO 157 0 min 3,7 C 0,0 km/h (0 Bft)
21.05.2016 03:20 6,1 C 5,6 C 84 % 1019,8 hPa 0,0 mm 0,0 km/h (0 Bft) S 180 0 min 3,6 C 0,0 km/h (0 Bft)
21.05.2016 03:25 6,2 C 5,5 C 84 % 1019,8 hPa 0,0 mm 0,0 km/h (0 Bft) SW 225 0 min 3,7 C 0,0 km/h (0 Bft)
21.05.2016 03:30 6,2 C 5,4 C 84 % 1019,8 hPa 0,0 mm 0,0 km/h (0 Bft) SW 225 0 min 3,7 C 0,0 km/h (0 Bft)
21.05.2016 03:35 6,1 C 5,4 C 84 % 1019,8 hPa 0,0 mm 0,0 km/h (0 Bft) S 180 0 min 3,6 C 0,0 km/h (0 Bft)
21.05.2016 03:40 6,0 C 5,2 C 84 % 1019,8 hPa 0,0 mm 0,0 km/h (0 Bft) SW 225 0 min 3,5 C 0,0 km/h (0 Bft)
21.05.2016 03:45 5,8 C 5,2 C 85 % 1019,8 hPa 0,0 mm 0,0 km/h (0 Bft) N-NO 22 0 min 3,5 C 0,0 km/h (0 Bft)
21.05.2016 03:50 5,7 C 5,2 C 85 % 1019,8 hPa 0,0 mm 0,0 km/h (0 Bft) N-NO 22 0 min 3,4 C 0,0 km/h (0 Bft)
21.05.2016 03:55 5,8 C 5,2 C 85 % 1019,6 hPa 0,0 mm 0,0 km/h (0 Bft) N-NO 22 0 min 3,5 C 0,0 km/h (0 Bft)
21.05.2016 04:00 5,8 C 5,3 C 85 % 1019,6 hPa 0,0 mm 0,0 km/h (0 Bft) N-NO 22 0 min 3,5 C 0,0 km/h (0 Bft)
21.05.2016 04:05 5,7 C 5,3 C 85 % 1019,6 hPa 0,0 mm 0,0 km/h (0 Bft) N-NO 22 0 min 3,4 C 0,0 km/h (0 Bft)
21.05.2016 04:10 5,7 C 5,4 C 85 % 1019,6 hPa 0,0 mm 0,0 km/h (0 Bft) O-SO 112 0 min 3,4 C 0,0 km/h (0 Bft)
21.05.2016 04:15 5,8 C 5,2 C 85 % 1019,5 hPa 0,0 mm 0,0 km/h (0 Bft) O-SO 112 0 min 3,5 C 0,0 km/h (0 Bft)
21.05.2016 04:20 5,8 C 5,2 C 85 % 1019,5 hPa 0,0 mm 0,0 km/h (0 Bft) O-SO 112 0 min 3,5 C 0,0 km/h (0 Bft)
21.05.2016 04:25 5,7 C 5,2 C 85 % 1019,5 hPa 0,0 mm 0,0 km/h (0 Bft) O-SO 112 0 min 3,4 C 0,0 km/h (0 Bft)
21.05.2016 04:30 5,6 C 5,1 C 85 % 1019,5 hPa 0,0 mm 0,0 km/h (0 Bft) O-SO 112 0 min 3,3 C 0,0 km/h (0 Bft)
21.05.2016 04:35 5,5 C 4,8 C 85 % 1019,6 hPa 0,0 mm 0,0 km/h (0 Bft) O-SO 112 0 min 3,2 C 0,0 km/h (0 Bft)
21.05.2016 04:40 5,4 C 4,7 C 85 % 1019,6 hPa 0,0 mm 0,0 km/h (0 Bft) O-SO 112 0 min 3,1 C 0,0 km/h (0 Bft)
21.05.2016 04:45 5,2 C 4,6 C 85 % 1019,6 hPa 0,0 mm 0,0 km/h (0 Bft) O-SO 112 0 min 2,9 C 0,0 km/h (0 Bft)
21.05.2016 04:50 5,2 C 4,6 C 86 % 1019,6 hPa 0,0 mm 0,0 km/h (0 Bft) O-SO 112 0 min 3,1 C 0,0 km/h (0 Bft)
21.05.2016 04:55 5,2 C 4,7 C 86 % 1019,6 hPa 0,0 mm 0,0 km/h (0 Bft) O-SO 112 0 min 3,1 C 0,0 km/h (0 Bft)
21.05.2016 05:00 5,5 C 4,8 C 86 % 1019,6 hPa 0,0 mm 0,0 km/h (0 Bft) SO 135 0 min 3,3 C 0,0 km/h (0 Bft)
21.05.2016 05:05 5,5 C 4,7 C 86 % 1019,6 hPa 0,0 mm 0,0 km/h (0 Bft) S-SO 157 0 min 3,3 C 0,0 km/h (0 Bft)
21.05.2016 05:10 5,4 C 4,6 C 86 % 1019,6 hPa 0,0 mm 0,0 km/h (0 Bft) S-SO 157 0 min 3,3 C 0,0 km/h (0 Bft)
21.05.2016 05:15 5,4 C 4,7 C 86 % 1019,6 hPa 0,0 mm 0,0 km/h (0 Bft) S-SO 157 0 min 3,3 C 0,0 km/h (0 Bft)
21.05.2016 05:16 5,2 C 4,5 C 86 % 1019,6 hPa 0,0 mm 0,0 km/h (0 Bft) S-SO 157 0 min 3,1 C 0,0 km/h (0 Bft)
21.05.2016 05:19 5,2 C 4,5 C 86 % 1019,6 hPa 0,0 mm 0,0 km/h (0 Bft) S-SO 157 0 min 3,1 C 0,0 km/h (0 Bft)
21.05.2016 05:20 5,2 C 4,5 C 86 % 1019,6 hPa 0,0 mm 0,0 km/h (0 Bft) S-SO 157 0 min 3,1 C 0,0 km/h (0 Bft)
21.05.2016 05:25 5,0 C 4,4 C 86 % 1019,6 hPa 0,0 mm 0,0 km/h (0 Bft) S-SO 157 0 min 2,9 C 0,0 km/h (0 Bft)
21.05.2016 05:30 5,0 C 4,3 C 86 % 1019,6 hPa 0,0 mm 0,0 km/h (0 Bft) S-SO 157 0 min 2,9 C 0,0 km/h (0 Bft)
21.05.2016 05:35 5,0 C 4,5 C 86 % 1019,7 hPa 0,0 mm 0,0 km/h (0 Bft) SO 135 0 min 2,9 C 0,0 km/h (0 Bft)
21.05.2016 05:40 4,8 C 4,4 C 86 % 1019,7 hPa 0,0 mm 0,0 km/h (0 Bft) SO 135 0 min 2,7 C 0,0 km/h (0 Bft)
21.05.2016 05:45 4,7 C 4,2 C 86 % 1019,7 hPa 0,0 mm 0,0 km/h (0 Bft) S 180 0 min 2,6 C 0,0 km/h (0 Bft)
21.05.2016 05:50 4,7 C 4,2 C 86 % 1019,7 hPa 0,0 mm 0,0 km/h (0 Bft) S 180 0 min 2,6 C 0,0 km/h (0 Bft)
21.05.2016 05:55 4,7 C 4,5 C 86 % 1019,7 hPa 0,0 mm 0,0 km/h (0 Bft) S-SO 157 0 min 2,6 C 0,0 km/h (0 Bft)
21.05.2016 06:00 4,7 C 4,9 C 86 % 1019,7 hPa 0,0 mm 0,0 km/h (0 Bft) SO 135 0 min 2,6 C 0,0 km/h (0 Bft)
21.05.2016 06:05 4,8 C 5,8 C 86 % 1019,7 hPa 0,0 mm 0,0 km/h (0 Bft) S-SO 157 0 min 2,7 C 0,0 km/h (0 Bft)
21.05.2016 06:10 5,1 C 6,9 C 86 % 1019,7 hPa 0,0 mm 0,0 km/h (0 Bft) S 180 0 min 3,0 C 0,0 km/h (0 Bft)
21.05.2016 06:15 5,7 C 8,2 C 86 % 1019,5 hPa 0,0 mm 0,0 km/h (0 Bft) SW 225 0 min 3,5 C 0,0 km/h (0 Bft)
21.05.2016 06:20 6,2 C 8,8 C 86 % 1019,5 hPa 0,0 mm 0,0 km/h (0 Bft) S 180 0 min 4,0 C 0,0 km/h (0 Bft)
21.05.2016 06:25 6,5 C 9,1 C 86 % 1019,5 hPa 0,0 mm 0,0 km/h (0 Bft) SW 225 5 min 4,3 C 0,0 km/h (0 Bft)
21.05.2016 06:30 6,3 C 9,1 C 86 % 1019,5 hPa 0,0 mm 0,0 km/h (0 Bft) S-SO 157 5 min 4,1 C 0,0 km/h (0 Bft)
21.05.2016 06:35 6,2 C 10,2 C 86 % 1019,4 hPa 0,0 mm 0,0 km/h (0 Bft) S 180 5 min 4,0 C 0,0 km/h (0 Bft)
21.05.2016 06:40 6,5 C 11,0 C 86 % 1019,4 hPa 0,0 mm 0,0 km/h (0 Bft) SO 135 5 min 4,3 C 0,0 km/h (0 Bft)
21.05.2016 06:45 7,2 C 12,5 C 86 % 1019,4 hPa 0,0 mm 0,0 km/h (0 Bft) SW 225 5 min 5,0 C 0,0 km/h (0 Bft)
21.05.2016 06:50 7,9 C 13,2 C 86 % 1019,4 hPa 0,0 mm 0,0 km/h (0 Bft) O-NO 67 5 min 5,7 C 0,0 km/h (0 Bft)
21.05.2016 06:55 8,3 C 14,5 C 86 % 1019,4 hPa 0,0 mm 0,0 km/h (0 Bft) S 180 5 min 6,1 C 0,0 km/h (0 Bft)
21.05.2016 07:00 8,5 C 15,8 C 86 % 1019,4 hPa 0,0 mm 0,0 km/h (0 Bft) S 180 5 min 6,3 C 0,0 km/h (0 Bft)
21.05.2016 07:05 9,2 C 17,2 C 86 % 1019,4 hPa 0,0 mm 0,0 km/h (0 Bft) S 180 5 min 7,0 C 0,0 km/h (0 Bft)
21.05.2016 07:10 9,4 C 17,9 C 86 % 1019,4 hPa 0,0 mm 0,0 km/h (0 Bft) SO 135 5 min 7,2 C 0,0 km/h (0 Bft)
21.05.2016 07:15 10,0 C 18,6 C 85 % 1019,6 hPa 0,0 mm 0,0 km/h (0 Bft) N-NW 337 5 min 7,6 C 0,0 km/h (0 Bft)
21.05.2016 07:20 10,7 C 18,9 C 85 % 1019,6 hPa 0,0 mm 0,0 km/h (0 Bft) N-NW 337 5 min 8,3 C 0,0 km/h (0 Bft)
21.05.2016 07:25 11,0 C 18,5 C 84 % 1019,6 hPa 0,0 mm 0,0 km/h (0 Bft) O-NO 67 5 min 8,4 C 0,0 km/h (0 Bft)
21.05.2016 07:30 10,9 C 18,1 C 84 % 1019,6 hPa 0,0 mm 0,0 km/h (0 Bft) NO 45 5 min 8,3 C 0,0 km/h (0 Bft)
21.05.2016 07:35 12,1 C 18,9 C 83 % 1019,7 hPa 0,0 mm 0,0 km/h (0 Bft) W-SW 247 5 min 9,3 C 0,0 km/h (0 Bft)
21.05.2016 07:40 12,6 C 19,9 C 83 % 1019,7 hPa 0,0 mm 0,0 km/h (0 Bft) NW 315 5 min 9,8 C 0,0 km/h (0 Bft)
21.05.2016 07:45 13,4 C 21,1 C 81 % 1019,7 hPa 0,0 mm 0,0 km/h (0 Bft) N-NO 22 5 min 10,2 C 0,0 km/h (0 Bft)
21.05.2016 07:50 13,5 C 21,3 C 80 % 1019,7 hPa 0,0 mm 0,0 km/h (0 Bft) O-NO 67 5 min 10,1 C 0,0 km/h (0 Bft)
21.05.2016 07:55 13,9 C 22,2 C 79 % 1019,6 hPa 0,0 mm 0,0 km/h (0 Bft) N-NW 337 5 min 10,3 C 0,0 km/h (0 Bft)
21.05.2016 08:00 14,4 C 23,2 C 78 % 1019,6 hPa 0,0 mm 0,0 km/h (0 Bft) NO 45 5 min 10,6 C 0,0 km/h (0 Bft)
21.05.2016 08:05 14,6 C 23,7 C 76 % 1019,6 hPa 0,0 mm 0,0 km/h (0 Bft) O-NO 67 5 min 10,4 C 0,0 km/h (0 Bft)
21.05.2016 08:10 14,6 C 23,5 C 75 % 1019,6 hPa 0,0 mm 0,0 km/h (0 Bft) NO 45 5 min 10,2 C 0,0 km/h (0 Bft)
21.05.2016 08:15 14,9 C 23,4 C 74 % 1019,8 hPa 0,0 mm 0,0 km/h (0 Bft) N-NO 22 5 min 10,3 C 0,0 km/h (0 Bft)
21.05.2016 08:16 15,0 C 23,6 C 72 % 1019,8 hPa 0,0 mm 0,0 km/h (0 Bft) NO 45 1 min 10,0 C 0,0 km/h (0 Bft)
21.05.2016 08:20 15,0 C 23,6 C 72 % 1019,8 hPa 0,0 mm 0,0 km/h (0 Bft) NO 45 4 min 10,0 C 0,0 km/h (0 Bft)
21.05.2016 08:25 15,3 C 23,7 C 71 % 1019,8 hPa 0,0 mm 0,0 km/h (0 Bft) O-NO 67 5 min 10,1 C 0,0 km/h (0 Bft)
21.05.2016 08:30 15,6 C 23,9 C 70 % 1019,8 hPa 0,0 mm 0,0 km/h (0 Bft) NW 315 5 min 10,1 C 0,0 km/h (0 Bft)
21.05.2016 08:35 15,0 C 23,2 C 69 % 1019,8 hPa 0,0 mm 0,0 km/h (0 Bft) N-NW 337 5 min 9,4 C 0,0 km/h (0 Bft)
21.05.2016 08:40 15,2 C 22,8 C 69 % 1019,8 hPa 0,0 mm 0,0 km/h (0 Bft) N-NO 22 5 min 9,6 C 0,0 km/h (0 Bft)
21.05.2016 08:45 15,2 C 22,4 C 69 % 1019,8 hPa 0,0 mm 0,0 km/h (0 Bft) N-NO 22 5 min 9,6 C 0,0 km/h (0 Bft)
21.05.2016 08:50 15,6 C 22,3 C 69 % 1019,8 hPa 0,0 mm 0,0 km/h (0 Bft) O-NO 67 5 min 9,9 C 0,0 km/h (0 Bft)
21.05.2016 08:55 15,8 C 23,3 C 68 % 1019,9 hPa 0,0 mm 0,0 km/h (0 Bft) NO 45 5 min 9,9 C 0,0 km/h (0 Bft)
21.05.2016 09:00 15,9 C 23,7 C 68 % 1019,9 hPa 0,0 mm 0,0 km/h (0 Bft) N-NO 22 5 min 10,0 C 0,0 km/h (0 Bft)
21.05.2016 09:05 16,0 C 23,2 C 65 % 1019,9 hPa 0,0 mm 0,0 km/h (0 Bft) NO 45 5 min 9,4 C 0,0 km/h (0 Bft)
21.05.2016 09:10 16,0 C 22,4 C 63 % 1019,9 hPa 0,0 mm 0,0 km/h (0 Bft) NO 45 5 min 9,0 C 0,0 km/h (0 Bft)
21.05.2016 09:15 16,0 C 22,0 C 61 % 1020,2 hPa 0,0 mm 0,0 km/h (0 Bft) N 360 5 min 8,5 C 0,0 km/h (0 Bft)
21.05.2016 09:20 15,9 C 21,6 C 60 % 1020,2 hPa 0,0 mm 1,5 km/h (1 Bft) NO 45 5 min 8,1 C 9,8 km/h (2 Bft)
21.05.2016 09:25 16,1 C 21,2 C 60 % 1020,2 hPa 0,0 mm 5,7 km/h (1 Bft) O-NO 67 5 min 8,3 C 11,9 km/h (2 Bft)
21.05.2016 09:30 16,2 C 21,2 C 60 % 1020,2 hPa 0,0 mm 6,0 km/h (2 Bft) N-NO 22 5 min 8,4 C 3,9 km/h (1 Bft)
21.05.2016 09:35 16,1 C 21,0 C 59 % 1020,4 hPa 0,0 mm 6,6 km/h (2 Bft) O-NO 67 5 min 8,1 C 17,9 km/h (3 Bft)
21.05.2016 09:40 16,2 C 21,1 C 58 % 1020,4 hPa 0,0 mm 8,0 km/h (2 Bft) N 360 5 min 7,9 C 5,7 km/h (1 Bft)
21.05.2016 09:45 16,4 C 21,6 C 58 % 1020,4 hPa 0,0 mm 6,6 km/h (2 Bft) NO 45 5 min 8,1 C 7,7 km/h (2 Bft)
21.05.2016 09:50 16,5 C 21,6 C 58 % 1020,4 hPa 0,0 mm 6,9 km/h (2 Bft) NO 45 5 min 8,2 C 14,0 km/h (3 Bft)
21.05.2016 09:55 16,7 C 21,9 C 58 % 1020,1 hPa 0,0 mm 8,3 km/h (2 Bft) N-NO 22 5 min 8,4 C 10,4 km/h (2 Bft)
21.05.2016 10:00 16,9 C 22,0 C 58 % 1020,1 hPa 0,0 mm 8,3 km/h (2 Bft) O-NO 67 5 min 8,6 C 8,6 km/h (2 Bft)
21.05.2016 10:05 16,8 C 21,9 C 58 % 1020,1 hPa 0,0 mm 8,3 km/h (2 Bft) N-NO 22 5 min 8,5 C 6,9 km/h (2 Bft)
21.05.2016 10:10 16,9 C 22,0 C 58 % 1020,1 hPa 0,0 mm 8,0 km/h (2 Bft) NO 45 5 min 8,6 C 5,1 km/h (1 Bft)
21.05.2016 10:15 17,2 C 22,2 C 59 % 1020,2 hPa 0,0 mm 5,4 km/h (1 Bft) NO 45 5 min 9,1 C 4,5 km/h (1 Bft)
21.05.2016 10:20 17,3 C 22,5 C 58 % 1020,2 hPa 0,0 mm 6,6 km/h (2 Bft) N-NO 22 5 min 9,0 C 14,3 km/h (3 Bft)
21.05.2016 10:25 17,2 C 22,0 C 58 % 1020,2 hPa 0,0 mm 7,7 km/h (2 Bft) NO 45 5 min 8,9 C 17,0 km/h (3 Bft)
21.05.2016 10:30 17,2 C 22,1 C 57 % 1020,2 hPa 0,0 mm 8,9 km/h (2 Bft) O-NO 67 5 min 8,6 C 11,0 km/h (2 Bft)
21.05.2016 10:35 17,5 C 22,9 C 58 % 1020,3 hPa 0,0 mm 7,7 km/h (2 Bft) O 90 5 min 9,1 C 6,3 km/h (2 Bft)
21.05.2016 10:40 17,7 C 23,5 C 56 % 1020,3 hPa 0,0 mm 7,2 km/h (2 Bft) NO 45 5 min 8,8 C 9,2 km/h (2 Bft)
21.05.2016 10:45 18,1 C 24,5 C 57 % 1020,3 hPa 0,0 mm 5,4 km/h (1 Bft) NW 315 5 min 9,4 C 9,2 km/h (2 Bft)
21.05.2016 10:50 18,1 C 24,8 C 56 % 1020,3 hPa 0,0 mm 5,7 km/h (1 Bft) O 90 5 min 9,2 C 8,9 km/h (2 Bft)
21.05.2016 10:55 18,2 C 24,8 C 56 % 1020,6 hPa 0,0 mm 7,5 km/h (2 Bft) N-NW 337 5 min 9,3 C 7,2 km/h (2 Bft)
21.05.2016 11:00 18,4 C 24,8 C 56 % 1020,6 hPa 0,0 mm 5,7 km/h (1 Bft) SO 135 5 min 9,5 C 6,6 km/h (2 Bft)
21.05.2016 11:05 18,3 C 24,8 C 55 % 1020,6 hPa 0,0 mm 4,2 km/h (1 Bft) NW 315 5 min 9,1 C 8,3 km/h (2 Bft)
21.05.2016 11:10 18,4 C 24,8 C 55 % 1020,6 hPa 0,0 mm 6,0 km/h (2 Bft) O-NO 67 5 min 9,2 C 7,2 km/h (2 Bft)
21.05.2016 11:15 18,3 C 24,5 C 55 % 1020,6 hPa 0,0 mm 4,5 km/h (1 Bft) N 360 5 min 9,1 C 0,0 km/h (0 Bft)
21.05.2016 11:16 18,8 C 25,0 C 55 % 1020,6 hPa 0,0 mm 3,3 km/h (1 Bft) N-NO 22 1 min 9,6 C 9,5 km/h (2 Bft)
21.05.2016 11:21 18,8 C 25,0 C 55 % 1020,6 hPa 0,0 mm 3,3 km/h (1 Bft) N-NO 22 5 min 9,6 C 9,5 km/h (2 Bft)
21.05.2016 11:25 18,9 C 25,8 C 54 % 1020,6 hPa 0,0 mm 3,0 km/h (1 Bft) N-NO 22 4 min 9,4 C 12,5 km/h (3 Bft)
21.05.2016 11:30 18,9 C 25,5 C 53 % 1020,6 hPa 0,0 mm 5,1 km/h (1 Bft) N-NO 22 5 min 9,1 C 3,0 km/h (1 Bft)
21.05.2016 11:35 18,9 C 25,0 C 51 % 1020,7 hPa 0,0 mm 7,2 km/h (2 Bft) NW 315 5 min 8,5 C 8,9 km/h (2 Bft)
21.05.2016 11:40 19,0 C 25,1 C 53 % 1020,7 hPa 0,0 mm 6,0 km/h (2 Bft) N-NO 22 5 min 9,2 C 6,9 km/h (2 Bft)
21.05.2016 11:45 18,8 C 24,2 C 53 % 1020,7 hPa 0,0 mm 5,7 km/h (1 Bft) O-NO 67 5 min 9,0 C 8,6 km/h (2 Bft)
21.05.2016 11:50 18,7 C 24,0 C 53 % 1020,7 hPa 0,0 mm 5,4 km/h (1 Bft) NO 45 5 min 8,9 C 0,0 km/h (0 Bft)
21.05.2016 11:55 18,9 C 24,7 C 52 % 1021,0 hPa 0,0 mm 4,5 km/h (1 Bft) W 270 5 min 8,8 C 14,0 km/h (3 Bft)
21.05.2016 12:00 18,8 C 24,8 C 54 % 1021,0 hPa 0,0 mm 3,6 km/h (1 Bft) N-NW 337 5 min 9,3 C 4,5 km/h (1 Bft)
21.05.2016 12:05 18,9 C 25,0 C 54 % 1021,0 hPa 0,0 mm 4,2 km/h (1 Bft) N-NO 22 5 min 9,4 C 10,4 km/h (2 Bft)
21.05.2016 12:10 19,1 C 24,8 C 53 % 1021,0 hPa 0,0 mm 5,1 km/h (1 Bft) N-NO 22 5 min 9,3 C 8,3 km/h (2 Bft)
21.05.2016 12:15 19,3 C 25,1 C 51 % 1020,2 hPa 0,0 mm 4,8 km/h (1 Bft) N 360 5 min 8,9 C 20,0 km/h (4 Bft)
21.05.2016 12:20 19,2 C 25,3 C 50 % 1020,2 hPa 0,0 mm 4,2 km/h (1 Bft) O-NO 67 5 min 8,5 C 0,0 km/h (0 Bft)
21.05.2016 12:25 19,6 C 25,5 C 51 % 1020,2 hPa 0,0 mm 5,7 km/h (1 Bft) N-NW 337 5 min 9,2 C 8,6 km/h (2 Bft)
21.05.2016 12:30 19,6 C 25,8 C 51 % 1020,2 hPa 0,0 mm 5,4 km/h (1 Bft) NO 45 5 min 9,2 C 6,6 km/h (2 Bft)
21.05.2016 12:35 19,8 C 25,6 C 50 % 1020,1 hPa 0,0 mm 8,3 km/h (2 Bft) NO 45 5 min 9,1 C 21,5 km/h (4 Bft)
21.05.2016 12:40 19,6 C 25,0 C 49 % 1020,1 hPa 0,0 mm 10,4 km/h (2 Bft) NO 45 5 min 8,6 C 17,9 km/h (3 Bft)
21.05.2016 12:45 19,6 C 24,8 C 50 % 1020,1 hPa 0,0 mm 10,1 km/h (2 Bft) N-NO 22 5 min 8,9 C 0,0 km/h (0 Bft)
21.05.2016 12:50 20,2 C 25,6 C 52 % 1020,1 hPa 0,0 mm 5,7 km/h (1 Bft) NW 315 5 min 10,0 C 5,4 km/h (1 Bft)
21.05.2016 12:55 20,2 C 26,1 C 50 % 1020,0 hPa 0,0 mm 4,5 km/h (1 Bft) NO 45 5 min 9,4 C 17,3 km/h (3 Bft)
21.05.2016 13:00 20,1 C 25,9 C 50 % 1020,0 hPa 0,0 mm 6,6 km/h (2 Bft) NO 45 5 min 9,3 C 9,5 km/h (2 Bft)
21.05.2016 13:05 19,9 C 25,5 C 49 % 1020,0 hPa 0,0 mm 7,2 km/h (2 Bft) NO 45 5 min 8,9 C 4,2 km/h (1 Bft)
21.05.2016 13:10 20,0 C 25,6 C 49 % 1020,0 hPa 0,0 mm 7,2 km/h (2 Bft) N-NO 22 5 min 9,0 C 7,2 km/h (2 Bft)
21.05.2016 13:15 20,2 C 25,9 C 49 % 1019,9 hPa 0,0 mm 6,9 km/h (2 Bft) N-NO 22 5 min 9,1 C 16,7 km/h (3 Bft)
21.05.2016 13:20 20,1 C 25,8 C 49 % 1019,9 hPa 0,0 mm 6,6 km/h (2 Bft) O-NO 67 5 min 9,0 C 6,9 km/h (2 Bft)
21.05.2016 13:25 20,3 C 26,0 C 49 % 1019,9 hPa 0,0 mm 6,0 km/h (2 Bft) O-SO 112 5 min 9,2 C 5,4 km/h (1 Bft)
21.05.2016 13:30 20,3 C 26,3 C 49 % 1019,9 hPa 0,0 mm 5,7 km/h (1 Bft) NO 45 5 min 9,2 C 8,3 km/h (2 Bft)
21.05.2016 13:35 20,6 C 26,4 C 49 % 1019,7 hPa 0,0 mm 6,0 km/h (2 Bft) N-NO 22 5 min 9,5 C 7,7 km/h (2 Bft)
21.05.2016 13:40 20,5 C 26,5 C 49 % 1019,7 hPa 0,0 mm 6,6 km/h (2 Bft) N-NO 22 5 min 9,4 C 11,0 km/h (2 Bft)
21.05.2016 13:45 20,5 C 26,3 C 49 % 1019,7 hPa 0,0 mm 8,9 km/h (2 Bft) W 270 5 min 9,4 C 13,1 km/h (3 Bft)
21.05.2016 13:50 20,5 C 26,2 C 50 % 1019,7 hPa 0,0 mm 8,6 km/h (2 Bft) N-NO 22 5 min 9,7 C 8,6 km/h (2 Bft)
21.05.2016 13:55 20,8 C 26,5 C 49 % 1019,4 hPa 0,0 mm 6,9 km/h (2 Bft) N-NO 22 5 min 9,7 C 6,3 km/h (2 Bft)
21.05.2016 14:00 20,7 C 26,3 C 49 % 1019,4 hPa 0,0 mm 6,9 km/h (2 Bft) O-NO 67 5 min 9,6 C 6,3 km/h (2 Bft)
21.05.2016 14:05 20,8 C 26,7 C 49 % 1019,4 hPa 0,0 mm 3,6 km/h (1 Bft) O 90 5 min 9,7 C 0,0 km/h (0 Bft)
21.05.2016 14:10 20,9 C 27,1 C 49 % 1019,4 hPa 0,0 mm 2,4 km/h (1 Bft) N-NW 337 5 min 9,8 C 12,2 km/h (2 Bft)
21.05.2016 14:15 21,1 C 26,9 C 49 % 1019,5 hPa 0,0 mm 6,3 km/h (2 Bft) NO 45 5 min 10,0 C 10,4 km/h (2 Bft)
21.05.2016 14:20 21,1 C 26,9 C 49 % 1019,5 hPa 0,0 mm 7,2 km/h (2 Bft) S-SO 157 5 min 10,0 C 0,0 km/h (0 Bft)
21.05.2016 14:21 21,2 C 27,3 C 48 % 1019,5 hPa 0,0 mm 6,0 km/h (2 Bft) O-SO 112 1 min 9,7 C 0,0 km/h (0 Bft)
21.05.2016 14:22 21,2 C 27,3 C 48 % 1019,5 hPa 0,0 mm 6,0 km/h (2 Bft) O-SO 112 1 min 9,7 C 0,0 km/h (0 Bft)
21.05.2016 14:25 21,2 C 27,3 C 48 % 1019,5 hPa 0,0 mm 6,0 km/h (2 Bft) O-SO 112 3 min 9,7 C 0,0 km/h (0 Bft)
21.05.2016 14:30 21,2 C 27,3 C 48 % 1019,5 hPa 0,0 mm 5,4 km/h (1 Bft) W-NW 292 5 min 9,7 C 11,0 km/h (2 Bft)
21.05.2016 14:35 21,1 C 27,0 C 49 % 1019,3 hPa 0,0 mm 7,7 km/h (2 Bft) N-NO 22 5 min 10,0 C 26,2 km/h (4 Bft)
21.05.2016 14:40 21,1 C 26,8 C 48 % 1019,3 hPa 0,0 mm 8,9 km/h (2 Bft) W-SW 247 5 min 9,7 C 4,2 km/h (1 Bft)
21.05.2016 14:45 21,2 C 27,1 C 49 % 1019,3 hPa 0,0 mm 7,5 km/h (2 Bft) N-NO 22 5 min 10,1 C 8,0 km/h (2 Bft)
21.05.2016 14:50 21,1 C 26,7 C 48 % 1019,3 hPa 0,0 mm 7,5 km/h (2 Bft) NO 45 5 min 9,7 C 10,7 km/h (2 Bft)
21.05.2016 14:55 21,2 C 26,5 C 48 % 1018,9 hPa 0,0 mm 7,2 km/h (2 Bft) S-SW 202 5 min 9,7 C 0,0 km/h (0 Bft)
21.05.2016 15:00 21,3 C 27,1 C 47 % 1018,9 hPa 0,0 mm 5,7 km/h (1 Bft) W-NW 292 5 min 9,5 C 4,2 km/h (1 Bft)
21.05.2016 15:05 21,4 C 27,6 C 47 % 1018,9 hPa 0,0 mm 3,0 km/h (1 Bft) S 180 5 min 9,6 C 0,0 km/h (0 Bft)
21.05.2016 15:10 21,7 C 28,2 C 47 % 1018,9 hPa 0,0 mm 3,3 km/h (1 Bft) NW 315 5 min 9,9 C 8,6 km/h (2 Bft)
21.05.2016 15:15 21,7 C 28,3 C 47 % 1018,8 hPa 0,0 mm 3,0 km/h (1 Bft) O-NO 67 5 min 9,9 C 5,7 km/h (1 Bft)
21.05.2016 15:20 21,7 C 28,0 C 47 % 1018,8 hPa 0,0 mm 3,9 km/h (1 Bft) N-NW 337 5 min 9,9 C 7,5 km/h (2 Bft)
21.05.2016 15:25 21,7 C 27,7 C 46 % 1018,8 hPa 0,0 mm 6,9 km/h (2 Bft) NO 45 5 min 9,6 C 6,6 km/h (2 Bft)
21.05.2016 15:30 21,8 C 27,4 C 47 % 1018,8 hPa 0,0 mm 8,3 km/h (2 Bft) N-NO 22 5 min 10,0 C 9,2 km/h (2 Bft)
21.05.2016 15:35 21,8 C 27,1 C 46 % 1018,7 hPa 0,0 mm 8,0 km/h (2 Bft) O-NO 67 5 min 9,7 C 11,3 km/h (2 Bft)
21.05.2016 15:40 21,7 C 27,1 C 46 % 1018,7 hPa 0,0 mm 7,5 km/h (2 Bft) NW 315 5 min 9,6 C 9,8 km/h (2 Bft)
21.05.2016 15:45 21,8 C 27,5 C 46 % 1018,7 hPa 0,0 mm 5,1 km/h (1 Bft) S-SW 202 5 min 9,7 C 10,1 km/h (2 Bft)
21.05.2016 15:50 21,8 C 27,6 C 47 % 1018,7 hPa 0,0 mm 3,6 km/h (1 Bft) O-NO 67 5 min 10,0 C 8,9 km/h (2 Bft)
21.05.2016 15:55 21,6 C 27,4 C 46 % 1018,6 hPa 0,0 mm 5,7 km/h (1 Bft) NO 45 5 min 9,5 C 5,7 km/h (1 Bft)
21.05.2016 16:00 21,6 C 27,4 C 45 % 1018,6 hPa 0,0 mm 6,6 km/h (2 Bft) NW 315 5 min 9,2 C 3,3 km/h (1 Bft)
21.05.2016 16:05 21,6 C 27,4 C 45 % 1018,6 hPa 0,0 mm 5,7 km/h (1 Bft) NO 45 5 min 9,2 C 10,1 km/h (2 Bft)
21.05.2016 16:10 21,6 C 27,2 C 46 % 1018,6 hPa 0,0 mm 4,2 km/h (1 Bft) N 360 5 min 9,5 C 0,0 km/h (0 Bft)
21.05.2016 16:15 21,6 C 28,1 C 46 % 1018,3 hPa 0,0 mm 3,6 km/h (1 Bft) W-SW 247 5 min 9,5 C 5,4 km/h (1 Bft)
21.05.2016 16:20 21,6 C 28,0 C 45 % 1018,3 hPa 0,0 mm 5,7 km/h (1 Bft) W-SW 247 5 min 9,2 C 20,0 km/h (4 Bft)
21.05.2016 16:25 21,4 C 27,4 C 46 % 1018,3 hPa 0,0 mm 9,8 km/h (2 Bft) W 270 5 min 9,3 C 13,4 km/h (3 Bft)
21.05.2016 16:30 21,4 C 27,5 C 46 % 1018,3 hPa 0,0 mm 7,7 km/h (2 Bft) W-SW 247 5 min 9,3 C 0,0 km/h (0 Bft)
21.05.2016 16:35 21,4 C 28,3 C 46 % 1018,3 hPa 0,0 mm 2,4 km/h (1 Bft) N-NW 337 5 min 9,3 C 0,0 km/h (0 Bft)
21.05.2016 16:40 21,5 C 28,7 C 45 % 1018,3 hPa 0,0 mm 1,5 km/h (1 Bft) N-NW 337 5 min 9,1 C 0,0 km/h (0 Bft)
21.05.2016 16:45 21,6 C 27,2 C 45 % 1018,3 hPa 0,0 mm 2,7 km/h (1 Bft) NW 315 5 min 9,2 C 9,5 km/h (2 Bft)
21.05.2016 16:50 21,7 C 25,9 C 45 % 1018,3 hPa 0,0 mm 2,4 km/h (1 Bft) W-SW 247 5 min 9,2 C 3,9 km/h (1 Bft)
21.05.2016 16:55 21,7 C 24,4 C 44 % 1018,2 hPa 0,0 mm 6,6 km/h (2 Bft) N 360 5 min 8,9 C 9,2 km/h (2 Bft)
21.05.2016 17:00 21,7 C 23,8 C 43 % 1018,2 hPa 0,0 mm 7,5 km/h (2 Bft) N-NO 22 0 min 8,6 C 7,5 km/h (2 Bft)
21.05.2016 17:05 21,6 C 23,4 C 43 % 1018,2 hPa 0,0 mm 6,6 km/h (2 Bft) N-NW 337 0 min 8,5 C 6,3 km/h (2 Bft)
21.05.2016 17:10 21,6 C 23,4 C 43 % 1018,2 hPa 0,0 mm 4,2 km/h (1 Bft) O-SO 112 0 min 8,5 C 4,8 km/h (1 Bft)
21.05.2016 17:15 21,5 C 23,2 C 43 % 1018,1 hPa 0,0 mm 4,8 km/h (1 Bft) O 90 0 min 8,4 C 0,0 km/h (0 Bft)
21.05.2016 17:20 21,6 C 23,2 C 43 % 1018,1 hPa 0,0 mm 4,5 km/h (1 Bft) NO 45 0 min 8,5 C 7,5 km/h (2 Bft)
21.05.2016 17:21 21,6 C 23,1 C 43 % 1018,1 hPa 0,0 mm 3,6 km/h (1 Bft) N-NO 22 0 min 8,5 C 8,3 km/h (2 Bft)
21.05.2016 17:23 21,6 C 23,1 C 43 % 1018,1 hPa 0,0 mm 3,6 km/h (1 Bft) N-NO 22 0 min 8,5 C 8,3 km/h (2 Bft)
21.05.2016 17:25 21,6 C 23,1 C 43 % 1018,1 hPa 0,0 mm 3,6 km/h (1 Bft) N-NO 22 0 min 8,5 C 8,3 km/h (2 Bft)
21.05.2016 17:30 21,6 C 22,9 C 43 % 1018,1 hPa 0,0 mm 4,5 km/h (1 Bft) N-NO 22 0 min 8,5 C 0,0 km/h (0 Bft)
21.05.2016 17:35 21,6 C 22,9 C 43 % 1018,0 hPa 0,0 mm 3,6 km/h (1 Bft) N-NO 22 0 min 8,5 C 8,0 km/h (2 Bft)
21.05.2016 17:40 21,6 C 22,8 C 42 % 1018,0 hPa 0,0 mm 2,7 km/h (1 Bft) NW 315 0 min 8,1 C 0,0 km/h (0 Bft)
21.05.2016 17:45 21,6 C 23,0 C 43 % 1018,0 hPa 0,0 mm 2,1 km/h (1 Bft) N-NW 337 0 min 8,5 C 0,0 km/h (0 Bft)
21.05.2016 17:50 21,7 C 23,1 C 43 % 1018,0 hPa 0,0 mm 0,9 km/h (0 Bft) N-NO 22 0 min 8,6 C 5,4 km/h (1 Bft)
21.05.2016 17:55 21,7 C 23,0 C 43 % 1017,9 hPa 0,0 mm 3,3 km/h (1 Bft) N-NO 22 0 min 8,6 C 5,4 km/h (1 Bft)
21.05.2016 18:00 21,7 C 23,0 C 43 % 1017,9 hPa 0,0 mm 4,8 km/h (1 Bft) W-NW 292 0 min 8,6 C 6,9 km/h (2 Bft)
21.05.2016 18:05 21,6 C 23,2 C 43 % 1017,9 hPa 0,0 mm 4,8 km/h (1 Bft) N-NO 22 0 min 8,5 C 8,9 km/h (2 Bft)
21.05.2016 18:10 21,6 C 23,1 C 42 % 1017,9 hPa 0,0 mm 4,8 km/h (1 Bft) O-NO 67 0 min 8,1 C 0,0 km/h (0 Bft)
21.05.2016 18:15 21,7 C 23,1 C 42 % 1017,8 hPa 0,0 mm 3,9 km/h (1 Bft) N 360 0 min 8,2 C 6,9 km/h (2 Bft)
21.05.2016 18:20 21,8 C 23,1 C 42 % 1017,8 hPa 0,0 mm 2,4 km/h (1 Bft) NW 315 0 min 8,3 C 0,0 km/h (0 Bft)
21.05.2016 18:25 21,7 C 23,3 C 43 % 1017,8 hPa 0,0 mm 1,2 km/h (1 Bft) N-NW 337 0 min 8,6 C 12,8 km/h (3 Bft)
21.05.2016 18:30 21,8 C 23,3 C 43 % 1017,8 hPa 0,0 mm 2,4 km/h (1 Bft) W-NW 292 0 min 8,7 C 12,8 km/h (3 Bft)
21.05.2016 18:35 21,7 C 23,2 C 43 % 1017,9 hPa 0,0 mm 4,5 km/h (1 Bft) O 90 0 min 8,6 C 0,0 km/h (0 Bft)
21.05.2016 18:40 21,6 C 23,0 C 43 % 1017,9 hPa 0,0 mm 3,0 km/h (1 Bft) O-SO 112 0 min 8,5 C 0,0 km/h (0 Bft)
21.05.2016 18:45 21,6 C 23,0 C 44 % 1017,9 hPa 0,0 mm 1,5 km/h (1 Bft) W-NW 292 0 min 8,8 C 6,9 km/h (2 Bft)
21.05.2016 18:50 21,6 C 22,8 C 43 % 1017,9 hPa 0,0 mm 2,1 km/h (1 Bft) N-NO 22 0 min 8,5 C 5,4 km/h (1 Bft)
21.05.2016 18:55 21,7 C 23,0 C 43 % 1017,7 hPa 0,0 mm 4,5 km/h (1 Bft) NW 315 0 min 8,6 C 6,3 km/h (2 Bft)
21.05.2016 19:00 21,6 C 23,0 C 44 % 1017,7 hPa 0,0 mm 5,4 km/h (1 Bft) NW 315 0 min 8,8 C 5,1 km/h (1 Bft)
21.05.2016 19:05 21,5 C 22,5 C 44 % 1017,7 hPa 0,0 mm 3,0 km/h (1 Bft) NW 315 0 min 8,7 C 5,7 km/h (1 Bft)
21.05.2016 19:10 21,4 C 22,3 C 44 % 1017,7 hPa 0,0 mm 2,1 km/h (1 Bft) N 360 0 min 8,6 C 0,0 km/h (0 Bft)
21.05.2016 19:15 21,0 C 21,9 C 45 % 1017,7 hPa 0,0 mm 0,9 km/h (0 Bft) W 270 0 min 8,6 C 0,0 km/h (0 Bft)
21.05.2016 19:20 20,6 C 21,5 C 47 % 1017,7 hPa 0,0 mm 0,0 km/h (0 Bft) O-NO 67 0 min 8,9 C 0,0 km/h (0 Bft)
21.05.2016 19:25 20,3 C 21,1 C 46 % 1017,7 hPa 0,0 mm 0,0 km/h (0 Bft) O 90 0 min 8,3 C 0,0 km/h (0 Bft)
21.05.2016 19:30 20,2 C 21,3 C 46 % 1017,7 hPa 0,0 mm 0,0 km/h (0 Bft) S-SO 157 0 min 8,2 C 0,0 km/h (0 Bft)
21.05.2016 19:35 19,7 C 21,3 C 48 % 1017,6 hPa 0,0 mm 0,0 km/h (0 Bft) SO 135 0 min 8,4 C 0,0 km/h (0 Bft)
21.05.2016 19:40 19,5 C 21,1 C 49 % 1017,6 hPa 0,0 mm 0,0 km/h (0 Bft) S-SO 157 0 min 8,5 C 0,0 km/h (0 Bft)
21.05.2016 19:45 18,9 C 20,6 C 52 % 1017,6 hPa 0,0 mm 0,0 km/h (0 Bft) S-SO 157 0 min 8,8 C 0,0 km/h (0 Bft)
21.05.2016 19:50 18,6 C 20,4 C 53 % 1017,6 hPa 0,0 mm 0,0 km/h (0 Bft) S-SO 157 0 min 8,8 C 0,0 km/h (0 Bft)
21.05.2016 19:55 18,6 C 20,2 C 54 % 1017,8 hPa 0,0 mm 0,0 km/h (0 Bft) S-SO 157 0 min 9,1 C 0,0 km/h (0 Bft)
21.05.2016 20:00 18,5 C 19,9 C 53 % 1017,8 hPa 0,0 mm 0,0 km/h (0 Bft) S-SO 157 0 min 8,7 C 0,0 km/h (0 Bft)
21.05.2016 20:05 18,5 C 19,5 C 53 % 1017,8 hPa 0,0 mm 0,0 km/h (0 Bft) O-SO 112 0 min 8,7 C 0,0 km/h (0 Bft)
21.05.2016 20:10 18,6 C 19,4 C 53 % 1017,8 hPa 0,0 mm 0,0 km/h (0 Bft) O-SO 112 0 min 8,8 C 0,0 km/h (0 Bft)
21.05.2016 20:15 18,6 C 19,6 C 53 % 1017,7 hPa 0,0 mm 0,0 km/h (0 Bft) SO 135 0 min 8,8 C 0,0 km/h (0 Bft)
21.05.2016 20:20 18,5 C 19,6 C 53 % 1017,7 hPa 0,0 mm 0,0 km/h (0 Bft) S-SO 157 0 min 8,7 C 0,0 km/h (0 Bft)
21.05.2016 20:21 17,9 C 19,2 C 55 % 1017,7 hPa 0,0 mm 0,0 km/h (0 Bft) S 180 0 min 8,7 C 0,0 km/h (0 Bft)
21.05.2016 20:24 17,9 C 19,2 C 55 % 1017,7 hPa 0,0 mm 0,0 km/h (0 Bft) S 180 0 min 8,7 C 0,0 km/h (0 Bft)
21.05.2016 20:25 17,9 C 19,2 C 55 % 1017,7 hPa 0,0 mm 0,0 km/h (0 Bft) S 180 0 min 8,7 C 0,0 km/h (0 Bft)
21.05.2016 20:30 17,4 C 18,7 C 56 % 1017,7 hPa 0,0 mm 0,0 km/h (0 Bft) S-SO 157 0 min 8,5 C 0,0 km/h (0 Bft)
21.05.2016 20:35 17,2 C 18,1 C 56 % 1017,8 hPa 0,0 mm 0,0 km/h (0 Bft) S-SO 157 0 min 8,3 C 0,0 km/h (0 Bft)
21.05.2016 20:40 17,1 C 17,7 C 56 % 1017,8 hPa 0,0 mm 0,0 km/h (0 Bft) S-SO 157 0 min 8,3 C 0,0 km/h (0 Bft)
21.05.2016 20:45 16,5 C 17,5 C 58 % 1017,8 hPa 0,0 mm 0,0 km/h (0 Bft) O-SO 112 0 min 8,2 C 0,0 km/h (0 Bft)
21.05.2016 20:50 16,2 C 17,1 C 58 % 1017,8 hPa 0,0 mm 0,0 km/h (0 Bft) S-SO 157 0 min 7,9 C 0,0 km/h (0 Bft)
21.05.2016 20:55 16,5 C 16,7 C 58 % 1017,4 hPa 0,0 mm 0,0 km/h (0 Bft) S-SO 157 0 min 8,2 C 0,0 km/h (0 Bft)
21.05.2016 21:00 16,0 C 16,5 C 58 % 1017,4 hPa 0,0 mm 0,0 km/h (0 Bft) S-SO 157 0 min 7,7 C 0,0 km/h (0 Bft)
21.05.2016 21:05 15,5 C 16,1 C 59 % 1017,4 hPa 0,0 mm 0,0 km/h (0 Bft) S-SO 157 0 min 7,5 C 0,0 km/h (0 Bft)
21.05.2016 21:10 15,4 C 15,9 C 60 % 1017,4 hPa 0,0 mm 0,0 km/h (0 Bft) S-SO 157 0 min 7,7 C 0,0 km/h (0 Bft)
21.05.2016 21:15 15,3 C 15,5 C 61 % 1017,4 hPa 0,0 mm 0,0 km/h (0 Bft) S 180 0 min 7,8 C 0,0 km/h (0 Bft)
21.05.2016 21:20 15,1 C 15,4 C 61 % 1017,4 hPa 0,0 mm 0,0 km/h (0 Bft) S 180 0 min 7,6 C 0,0 km/h (0 Bft)
21.05.2016 21:25 14,6 C 14,9 C 62 % 1017,4 hPa 0,0 mm 0,0 km/h (0 Bft) S 180 0 min 7,4 C 0,0 km/h (0 Bft)
21.05.2016 21:30 14,2 C 14,5 C 63 % 1017,4 hPa 0,0 mm 0,0 km/h (0 Bft) S-SO 157 0 min 7,3 C 0,0 km/h (0 Bft)
21.05.2016 21:35 13,7 C 13,6 C 64 % 1017,4 hPa 0,0 mm 0,0 km/h (0 Bft) S-SO 157 0 min 7,0 C 0,0 km/h (0 Bft)
21.05.2016 21:40 13,5 C 13,3 C 65 % 1017,4 hPa 0,0 mm 0,0 km/h (0 Bft) O-NO 67 0 min 7,1 C 0,0 km/h (0 Bft)
21.05.2016 21:45 13,3 C 12,8 C 65 % 1017,4 hPa 0,0 mm 0,0 km/h (0 Bft) O-NO 67 0 min 6,9 C 0,0 km/h (0 Bft)
21.05.2016 21:50 13,2 C 12,6 C 66 % 1017,4 hPa 0,0 mm 0,0 km/h (0 Bft) O-NO 67 0 min 7,0 C 0,0 km/h (0 Bft)
21.05.2016 21:55 13,0 C 12,3 C 66 % 1017,3 hPa 0,0 mm 0,0 km/h (0 Bft) N 360 0 min 6,8 C 0,0 km/h (0 Bft)
21.05.2016 22:00 12,8 C 12,0 C 67 % 1017,3 hPa 0,0 mm 0,0 km/h (0 Bft) N 360 0 min 6,8 C 0,0 km/h (0 Bft)
21.05.2016 22:05 12,7 C 12,0 C 68 % 1017,3 hPa 0,0 mm 0,0 km/h (0 Bft) W 270 0 min 6,9 C 0,0 km/h (0 Bft)
21.05.2016 22:10 12,6 C 11,9 C 68 % 1017,3 hPa 0,0 mm 0,0 km/h (0 Bft) N-NW 337 0 min 6,9 C 0,0 km/h (0 Bft)
21.05.2016 22:15 12,3 C 11,5 C 68 % 1017,2 hPa 0,0 mm 0,0 km/h (0 Bft) N-NW 337 0 min 6,6 C 0,0 km/h (0 Bft)
21.05.2016 22:20 12,2 C 11,4 C 69 % 1017,2 hPa 0,0 mm 0,0 km/h (0 Bft) N-NO 22 0 min 6,7 C 0,0 km/h (0 Bft)
21.05.2016 22:25 11,9 C 11,1 C 69 % 1017,2 hPa 0,0 mm 0,0 km/h (0 Bft) N-NO 22 0 min 6,4 C 0,0 km/h (0 Bft)
21.05.2016 22:30 11,8 C 11,1 C 70 % 1017,2 hPa 0,0 mm 0,0 km/h (0 Bft) N-NO 22 0 min 6,5 C 0,0 km/h (0 Bft)
21.05.2016 22:35 11,6 C 11,0 C 70 % 1017,2 hPa 0,0 mm 0,0 km/h (0 Bft) N-NO 22 0 min 6,3 C 0,0 km/h (0 Bft)
21.05.2016 22:40 11,5 C 10,9 C 71 % 1017,2 hPa 0,0 mm 0,0 km/h (0 Bft) N-NO 22 0 min 6,4 C 0,0 km/h (0 Bft)
21.05.2016 22:45 11,4 C 10,7 C 72 % 1017,2 hPa 0,0 mm 0,0 km/h (0 Bft) N-NO 22 0 min 6,5 C 0,0 km/h (0 Bft)
21.05.2016 22:50 11,3 C 10,7 C 72 % 1017,2 hPa 0,0 mm 0,0 km/h (0 Bft) NW 315 0 min 6,4 C 0,0 km/h (0 Bft)
21.05.2016 22:55 11,3 C 10,6 C 72 % 1016,9 hPa 0,0 mm 0,0 km/h (0 Bft) N-NW 337 0 min 6,4 C 0,0 km/h (0 Bft)
21.05.2016 23:00 11,3 C 10,6 C 73 % 1016,9 hPa 0,0 mm 0,0 km/h (0 Bft) N-NW 337 0 min 6,6 C 0,0 km/h (0 Bft)
21.05.2016 23:05 11,1 C 10,4 C 73 % 1016,9 hPa 0,0 mm 0,0 km/h (0 Bft) N 360 0 min 6,4 C 0,0 km/h (0 Bft)
21.05.2016 23:10 11,1 C 10,4 C 73 % 1016,9 hPa 0,0 mm 0,0 km/h (0 Bft) N-NW 337 0 min 6,4 C 0,0 km/h (0 Bft)
21.05.2016 23:15 11,0 C 10,4 C 74 % 1016,4 hPa 0,0 mm 0,0 km/h (0 Bft) NO 45 0 min 6,5 C 0,0 km/h (0 Bft)
21.05.2016 23:20 10,9 C 10,4 C 74 % 1016,4 hPa 0,0 mm 0,0 km/h (0 Bft) N-NO 22 0 min 6,5 C 0,0 km/h (0 Bft)
21.05.2016 23:21 10,8 C 10,1 C 74 % 1016,4 hPa 0,0 mm 0,0 km/h (0 Bft) N-NO 22 0 min 6,4 C 0,0 km/h (0 Bft)
21.05.2016 23:25 10,8 C 10,1 C 74 % 1016,4 hPa 0,0 mm 0,0 km/h (0 Bft) N-NO 22 0 min 6,4 C 0,0 km/h (0 Bft)
21.05.2016 23:30 10,7 C 10,1 C 74 % 1016,4 hPa 0,0 mm 0,0 km/h (0 Bft) N-NO 22 0 min 6,3 C 0,0 km/h (0 Bft)
21.05.2016 23:35 10,6 C 9,8 C 75 % 1016,7 hPa 0,0 mm 0,0 km/h (0 Bft) N-NO 22 0 min 6,4 C 0,0 km/h (0 Bft)
21.05.2016 23:40 10,5 C 9,8 C 75 % 1016,7 hPa 0,0 mm 0,0 km/h (0 Bft) N-NO 22 0 min 6,3 C 0,0 km/h (0 Bft)
21.05.2016 23:45 10,4 C 9,7 C 75 % 1016,7 hPa 0,0 mm 0,0 km/h (0 Bft) N-NO 22 0 min 6,2 C 0,0 km/h (0 Bft)
21.05.2016 23:50 10,3 C 9,7 C 75 % 1016,7 hPa 0,0 mm 0,0 km/h (0 Bft) N-NO 22 0 min 6,1 C 0,0 km/h (0 Bft)
21.05.2016 23:55 10,3 C 9,6 C 76 % 1016,7 hPa 0,0 mm 0,0 km/h (0 Bft) N-NO 22 0 min 6,3 C 0,0 km/h (0 Bft)
_ Min-Zeit 06:00 05:50 18:20 23:30 - 23:55 - - - 06:00 23:55
Minimum _ 4,7 C 4,2 C 42 % 1016,4 hPa - 0,0 km/h (0 Bft) - - - 2,6 C 0,0 km/h (0 Bft)
_ Max-Zeit 18:30 16:40 07:10 12:10 23:55 12:40 - - 16:55 08:00 14:35
Maximum _ 21,8 C 28,7 C 86 % 1021,0 hPa 0,0 mm 10,4 km/h
NO (2 Bft)
- - 5 min 10,6 C 26,2 km/h
N-NO (4 Bft)
Durchschnitt _ 14,4 C 17,1 C 65 % 1019,1 hPa #0,0 mm 2,3 km/h (1 Bft) N-NO - #10:35 h 7,2 C 3,1 km/h (1 Bft)